Regional Weather Roundup
Issued by NWS

Home | Current Version | Previous Version | Text Only | Print | Product List | Glossary On
Versions: 1 2 3 4 5 6 7 8 9 10 11 12 13 14 15 16 17 18 19 20 21 22 23 24 25 26 27 28 29 30 31 32 33 34 35 36 37 38 39 40 41 42 43 44 45 46 47 48 49 50
000
ASUS43 KLMK 241110
RWRKY
KENTUCKY REGIONAL WEATHER ROUNDUP
NATIONAL WEATHER SERVICE LOUISVILLE KY
700 AM EDT TUE MAY 24 2016

NOTE "FAIR" INDICATES FEW OR NO CLOUDS BELOW 12,000 FEET
WITH NO SIGNIFICANT WEATHER AND/OR OBSTRUCTIONS TO VISIBILITY.

KYZ001>023-026-027-061>063-070>075-241200-
WESTERN AND SOUTH CENTRAL KENTUCKY

CITY           SKY/WX    TMP DP  RH WIND       PRES   REMARKS
PADUCAH        CLOUDY    60  57  89 E3        30.01R
HENDERSON      PTCLDY    57  50  77 CALM      30.04R
OWENSBORO      PTCLDY    57  50  78 SE6       30.07R
HOPKINSVILLE   CLOUDY    57  52  84 CALM      30.06R
BOWLING GREEN  CLEAR     52  49  89 CALM      30.08R
GLASGOW        CLEAR     48  48 100 CALM      30.10R
$$

KYZ024-025-028>034-038-045-046-053-241200-
NORTH CENTRAL KENTUCKY

CITY           SKY/WX    TMP DP  RH WIND       PRES   REMARKS
LOUISVILLE/SDF PTCLDY    56  50  80 SE3       30.08R
LOUISVILLE/LOU CLEAR     54  50  86 CALM      30.08S
FORT KNOX      CLEAR     50  49  94 E1        30.07R
$$

KYZ035>037-039>044-047>052-055>060-089>105-241200-
NORTHEAST KENTUCKY

CITY           SKY/WX    TMP DP  RH WIND       PRES   REMARKS
LEXINGTON      CLEAR     54  49  83 S5        30.11R
COVINGTON      PTCLDY    52  50  93 CALM      30.09R
FRANKFORT      CLEAR     50  46  86 CALM      30.09R
$$

KYZ054-064>069-076>088-106>120-241200-
SOUTHEAST KENTUCKY

CITY           SKY/WX    TMP DP  RH WIND       PRES   REMARKS
JACKSON        CLEAR     54  49  83 CALM      30.12R
LONDON         CLEAR     49  47  93 CALM      30.12R
SOMERSET       CLEAR     48  48 100 CALM      30.13R
MIDDLESBORO    PTCLDY    47  47  99 CALM      30.15R
MONTICELLO     SUNNY     48  46  93 W9        30.13R
$$




USA.gov is the U.S. government's official web portal to all federal, state and local government web resources and services.